Regional Weather Roundup
Issued by NWS

Home | Current Version | Previous Version | Graphics & Text | Print | Product List | Glossary On
Versions: 1 2 3 4 5 6 7 8 9 10 11 12 13 14 15 16 17 18 19 20 21 22 23 24 25 26 27 28 29 30 31 32 33 34 35 36 37 38 39 40 41 42 43 44 45 46 47 48 49 50
000
ASUS43 KLMK 240602
RWRKY
KENTUCKY REGIONAL WEATHER ROUNDUP
NATIONAL WEATHER SERVICE LOUISVILLE KY
200 AM EDT SAT JUN 24 2017

NOTE "FAIR" INDICATES FEW OR NO CLOUDS BELOW 12,000 FEET
WITH NO SIGNIFICANT WEATHER AND/OR OBSTRUCTIONS TO VISIBILITY.

KYZ001>023-026-027-061>063-070>075-240700-
WESTERN AND SOUTH CENTRAL KENTUCKY

CITY           SKY/WX    TMP DP  RH WIND       PRES   REMARKS
PADUCAH        PTCLDY    68  64  87 CALM      29.92R
HENDERSON      PTCLDY    67  66  97 W3        29.92R
OWENSBORO      PTCLDY    70  69  97 CALM      29.91R
HOPKINSVILLE   NOT AVBL
BOWLING GREEN  PTCLDY    73  72  96 MISG      29.90R
GLASGOW        NOT AVBL
$$

KYZ024-025-028>034-038-045-046-053-240700-
NORTH CENTRAL KENTUCKY

CITY           SKY/WX    TMP DP  RH WIND       PRES   REMARKS
LOUISVILLE/SDF PTCLDY    68  66  93 NW5       29.89S
LOUISVILLE/LOU PTCLDY    68  68 100 CALM      29.90S FOG
FORT KNOX      PTCLDY    66  66 100 W3        29.90R
$$

KYZ035>037-039>044-047>052-055>060-089>105-240700-
NORTHEAST KENTUCKY

CITY           SKY/WX    TMP DP  RH WIND       PRES   REMARKS
LEXINGTON      LGT RAIN  69  67  93 CALM      29.90S
COVINGTON      PTCLDY    65  65 100 W5        29.87F
FRANKFORT      PTCLDY    69  65  86 CALM      29.89S
$$

KYZ054-064>069-076>088-106>120-240700-
SOUTHEAST KENTUCKY

CITY           SKY/WX    TMP DP  RH WIND       PRES   REMARKS
JACKSON        CLOUDY    66  65  96 CALM      29.91F
LONDON         CLOUDY    68  66  93 SE3       29.91F
SOMERSET       NOT AVBL
MIDDLESBORO    CLOUDY    67  67 100 CALM      29.94F
MONTICELLO     RAIN      71  71 100 NE8       29.91F
$$




USA.gov is the U.S. government's official web portal to all federal, state and local government web resources and services.